Regional Weather Roundup
Issued by NWS

Home | Current Version | Previous Version | Graphics & Text | Print | Product List | Glossary On
Versions: 1 2 3 4 5 6 7 8 9 10 11 12 13 14 15 16 17 18 19 20 21 22 23 24 25 26 27 28 29 30 31 32 33 34 35 36 37 38 39 40 41 42 43 44 45 46 47 48 49 50
075
ASUS43 KDTX 210810
RWRMI
MICHIGAN HOURLY REGIONAL WEATHER ROUNDUP
NATIONAL WEATHER SERVICE DETROIT/PONTIAC MI
400 AM EDT FRI JUL 21 2017

NOTE: "FAIR" INDICATES FEW OR NO CLOUDS BELOW 12,000 FEET WITH NO
SIGNIFICANT WEATHER AND/OR OBSTRUCTION TO VISIBILITY.

MIZ047>049-052>055-059>063-066>070-074>076-081>083-210900-
SOUTHEAST LOWER MICHIGAN

CITY           SKY/WX    TMP DP  RH WIND       PRES   REMARKS
ADRIAN         CLEAR     68  67  96 CALM      29.96F FOG
ALMA           FOG       64  62  96 NW5       29.97R VSB 1
ANN ARBOR      MOCLDY    65  65 100 CALM      29.95S FOG
BAD AXE          N/A     64  64  99 CALM      29.96S FOG
CARO           FOG       63  62  95 CALM      29.95S VSB 1/2
DETROIT CITY   CLEAR     75  71  87 NW5       29.94S
DETROIT        CLEAR     73  71  93 NW5       29.95S
FLINT          CLEAR     70  67  90 NW5       29.96S
GROSSE ILE     PTCLDY    73  70  91 CALM      29.93S
HILLSDALE      PTCLDY    66  64  94 CALM      29.98R FOG
HOWELL         CLEAR     68  67  97 CALM      29.97S FOG

CITY           SKY/WX    TMP DP  RH WIND       PRES   REMARKS
JACKSON        LGT RAIN  68  66  93 SW3       29.98R
LAMBERTVILLE     N/A     69  68  97 CALM      29.94S FOG
LANSING        CLEAR     68  65  90 CALM      29.97S
LAPEER         FAIR      66  64  96 CALM      29.96S
MASON            N/A     66  66 100 CALM      29.97S FOG
MONROE         CLEAR     70  69  99 N3        29.93S
MT. CLEMENS    CLEAR     70  70 100 NW3       29.92F
PONTIAC        CLEAR     72  70  93 NW6       29.95S
PORT HOPE        N/A     72  66  81 VRB3      29.94R
PORT HURON     FOG       66  64  94 CALM      29.94S VSB 1
TRI CITIES     CLEAR     70  67  90 NW3       29.96S
MIDLAND        FAIR      64  64 100 CALM      29.96R
TROY           CLEAR     74  70  85 NW5       29.96S
SAGINAW HB     CLEAR     68  63  83 CALM      29.95S
$$
MIZ043>046-050>051-056>058-064>065-071>073-077>080-210900-
SOUTHWEST LOWER MICHIGAN

CITY           SKY/WX    TMP DP  RH WIND       PRES   REMARKS
BATTLE CREEK   PTCLDY    65  65 100 CALM      29.99R
BENTON HARBOR  CLOUDY    64  62  93 CALM      29.97S
BIG RAPIDS     PTCLDY    61  59  93 CALM      29.98S FOG
COLDWATER      FOG       66  66 100 CALM      29.98S VSB 1/4
FREMONT        FOG       62  62 100 CALM      29.97F VSB<1/4
HOLLAND        CLEAR     62  60  93 SW5       29.99R FOG
GRAND RAPIDS   CLEAR     68  67  96 N3        29.97S
IONIA          FAIR      69  67  94 CALM      29.95F
KALAMAZOO      FOG       65  63  93 CALM      29.99R VSB 1
LUDINGTON      CLOUDY    65  65 100 SW3       29.96S
MARSHALL       FOG       66  65  98 CALM      29.97S VSB 1/2
MOUNT PLEASANT CLEAR     67  65  93 CALM      29.97R
MUSKEGON       CLEAR     65  63  93 CALM      29.97F
SOUTH HAVEN    CLOUDY    64  64  99 CALM      29.97S
$$
MIZ016>042-210900-
NORTHERN LOWER MICHIGAN

CITY           SKY/WX    TMP DP  RH WIND       PRES   REMARKS
ALPENA         PTCLDY    62  61  96 CALM      29.96S
BEAVER ISLAND  CLEAR     58  58 100 CALM      29.95F FOG
BELLAIRE       CLOUDY    59  57  95 CALM      29.98R FOG
CADILLAC       FOG       60  57  90 CALM      29.99R VSB 1/4
CHARLEVOIX     PTCLDY    64  64 100 CALM      29.99F
FRANKFORT      PTCLDY    64  64 100 CALM      29.97R
GAYLORD        MOCLDY    63  59  87 CALM      29.99S
GRAYLING       CLEAR     55  52  91 CALM      29.99S
HARBOR SPRINGS CLOUDY    65  65 100 CALM      29.96F
HOUGHTON LAKE  CLEAR     57  55  93 NE3       29.98F
MANISTEE       CLOUDY    62  62 100 CALM      29.97R
OSCODA         CLEAR     63  61  93 NW5       29.95S
PELLSTON       FOG       57  57 100 CALM      29.96F VSB 3/4
ROGERS CITY    MOCLDY    62  60  93 CALM      29.97S
TRAVERSE CITY  PTCLDY    65  62  90 CALM      29.97R
$$
MIZ007>008-015-210900-
EASTERN UPPER MICHIGAN

CITY           SKY/WX    TMP DP  RH WIND       PRES   REMARKS
KINROSS        CLEAR     57  56  96 W5        29.95S FOG
MACKINAC ISLAN CLEAR     61  61 100 NW5       29.95S
NEWBERRY       CLEAR     56  55  97 CALM      29.94F
S. S. MARIE    CLEAR     59  57  93 W3        29.93F FOG
MUNISING         N/A     58  58 100 S7        29.94S
$$
MIZ004>006-011>014-085-210900-
CENTRAL UPPER MICHIGAN

CITY           SKY/WX    TMP DP  RH WIND       PRES   REMARKS
MANISTIQUE     CLEAR     55  52  89 CALM      29.94F
ESCANABA       CLEAR     58  57  97 W5        29.95S
MENOMINEE      CLEAR     63  62  97 CALM      29.97S FOG
SAWYER-GWINN   CLEAR     57  56  95 CALM      29.97S
$$
MIZ001>003-009>011-084-210900-
WESTERN UPPER MICHIGAN

CITY           SKY/WX    TMP DP  RH WIND       PRES   REMARKS
IRON MOUNTAIN  CLEAR     57  54  89 CALM      29.97R
HOUGHTON       CLEAR     58  54  86 NW6       29.95R
COPPER HARBOR    N/A     61  55  81 W7        29.92F
IRONWOOD       CLEAR     59  58  96 CALM      29.99R
$$

ABBREVIATIONS USED IN REMARKS
   TC - TEMPERATURE IN CELSIUS
  WCI - WIND CHILL INDEX
   HX - HEAT INDEX
  VSB - VISIBILITY





USA.gov is the U.S. government's official web portal to all federal, state and local government web resources and services.